FW3861 Weather Reports


time (UTC)temp
F
wind
direction
speed
knots
gust
knots
rain 1hr
in
rain 24hr
in
rain mn
in
humidity
%
barometer
mb
20260504212703 58 189 4.3 8.7 0.00 0.00 0.00 79 1011.7
20260504212019 58 190 4.3 9.6 0.00 0.00 0.00 78 1011.6
20260504210903 58 185 4.3 7.8 0.00 0.00 0.00 76 1011.6
20260504210003 59 179 3.5 7.8 0.00 0.00 0.00 76 1011.7
20260504205403 59 178 4.3 8.7 0.00 0.00 0.00 75 1011.5
20260504204503 59 182 4.3 8.7 0.00 0.00 0.00 73 1011.5
20260504203603 60 176 4.3 8.7 0.00 0.00 0.00 72 1011.6
20260504202703 60 174 4.3 7.8 0.00 0.00 0.00 72 1011.5
20260504202020 60 184 3.5 8.7 0.00 0.00 0.00 73 1011.8
20260504200903 60 186 4.3 9.6 0.00 0.00 0.00 72 1011.6
20260504200220 59 190 5.2 9.6 0.00 0.00 0.00 73 1011.7
20260504195403 59 183 4.3 7.8 0.00 0.00 0.00 74 1011.7
20260504194503 59 181 4.3 9.6 0.00 0.00 0.00 75 1011.8
20260504193603 60 184 4.3 8.7 0.00 0.00 0.00 73 1011.9
20260504192703 60 183 4.3 8.7 0.00 0.00 0.00 73 1012.2
20260504191803 60 184 4.3 8.7 0.00 0.00 0.00 74 1012.1
20260504190903 60 187 4.3 8.7 0.00 0.00 0.00 72 1012.2
20260504190003 60 185 4.3 7.8 0.00 0.00 0.00 72 1012.5
20260504185403 60 181 4.3 7.8 0.00 0.00 0.00 72 1012.7
20260504184503 61 175 3.5 7.8 0.00 0.00 0.00 71 1012.7
20260504183603 60 185 3.5 8.7 0.00 0.00 0.00 71 1012.6
20260504182703 60 176 3.5 7.0 0.00 0.00 0.00 71 1012.7
20260504181803 60 181 3.5 7.8 0.00 0.00 0.00 72 1012.9
20260504180903 60 169 3.5 7.8 0.00 0.00 0.00 72 1012.9
20260504180221 60 172 3.5 8.7 0.00 0.00 0.00 72 1013.1
20260504175403 60 171 2.6 8.7 0.00 0.00 0.00 71 1013.1
20260504174503 60 173 2.6 6.1 0.00 0.00 0.00 70 1013.3
20260504173818 60 175 2.6 6.1 0.00 0.00 0.00 71 1013.1
20260504172919 60 174 3.5 6.1 0.00 0.00 0.00 72 1013.2
20260504171803 60 174 2.6 6.1 0.00 0.00 0.00 72 1013.4
20260504170903 60 191 3.5 7.8 0.00 0.00 0.00 72 1013.3
20260504150903 60 183 2.6 6.1 0.00 0.00 0.00 64 1014.7
20260504141121 60 202 2.6 6.1 0.00 0.00 0.00 59 1014.7
20260504130219 57 200 2.6 7.8 0.00 0.00 0.00 64 1015.5
20260504081803 51 225 1.7 5.2 0.00 0.00 0.00 62 1014.8
20260504081120 51 214 1.7 5.2 0.00 0.00 0.00 60 1014.8
20260504050003 52 187 1.7 6.1 0.00 0.00 0.00 56 1014.3
20260504045403 52 198 1.7 3.5 0.00 0.00 0.00 56 1014.3
20260504044503 52 199 1.7 3.5 0.00 0.00 0.00 57 1014.2
20260504043603 52 192 0.9 6.1 0.00 0.00 0.00 63 1014.1
20260504042703 52 195 1.7 3.5 0.00 0.00 0.00 64 1014.0
20260504041803 52 189 0.9 2.6 0.00 0.00 0.00 65 1014.0
20260504040903 52 185 0.9 2.6 0.00 0.00 0.00 66 1014.1
20260504040003 53 189 0.9 2.6 0.00 0.00 0.00 58 1014.0
20260504035403 53 194 1.7 3.5 0.00 0.00 0.00 58 1014.0
20260504034503 53 211 1.7 3.5 0.00 0.00 0.00 58 1013.9
20260504033821 53 200 1.7 2.6 0.00 0.00 0.00 59 1013.9
20260504032703 53 210 1.7 3.5 0.00 0.00 0.00 59 1014.0
20260504031803 53 193 1.7 3.5 0.00 0.00 0.00 57 1013.6
20260504030903 53 193 1.7 3.5 0.00 0.00 0.00 61 1013.5
20260504030004 53 203 1.7 3.5 0.00 0.00 0.00 65 1013.8
20260504025403 53 199 1.7 3.5 0.00 0.00 0.00 68 1013.7
20260504024503 53 177 0.9 3.5 0.00 0.00 0.00 65 1013.9
20260504023603 54 179 0.9 1.7 0.00 0.00 0.00 51 1013.8
20260504022703 53 193 0.9 1.7 0.00 0.00 0.00 52 1013.7
20260504021803 54 206 0.9 2.6 0.00 0.00 0.00 52 1013.9
20260504020903 53 193 1.7 2.6 0.00 0.00 0.00 59 1013.7
20260504020221 53 195 1.7 3.5 0.00 0.00 0.00 64 1013.8
20260504015403 53 190 0.9 2.6 0.00 0.00 0.00 69 1013.6
20260504014503 52 187 1.7 3.5 0.00 0.00 0.00 73 1013.7
20260504013603 54 173 0.9 1.7 0.00 0.00 0.00 63 1013.6
20260504012703 55 167 0.9 0.9 0.00 0.00 0.00 44 1013.5
20260504011803 55 171 0.9 1.7 0.00 0.00 0.00 42 1013.4
20260504010903 55 167 0.9 1.7 0.00 0.00 0.00 42 1013.2
20260504010003 55 168 0.9 1.7 0.00 0.00 0.00 41 1013.0
20260504005403 55 162 0.0 0.9 0.00 0.00 0.00 40 1013.0
20260504004503 56 168 0.9 1.7 0.00 0.00 0.00 39 1013.1
20260504003603 56 149 0.0 1.7 0.00 0.00 0.00 34 1012.7
20260504002703 56 192 0.9 1.7 0.00 0.00 0.00 31 1012.6
20260504001803 57 228 0.9 3.5 0.00 0.00 0.00 31 1012.4
20260504000903 57 224 0.9 5.2 0.00 0.00 0.00 31 1012.3
20260504000004 58 302 1.7 6.1 0.00 0.00 0.00 30 1012.3
20260503235403 58 289 1.7 6.1 0.00 0.00 0.00 30 1012.2
20260503234503 58 275 1.7 7.0 0.00 0.00 0.00 29 1011.9
20260503233603 58 281 2.6 7.0 0.00 0.00 0.00 29 1011.9
20260503232703 59 283 3.5 8.7 0.00 0.00 0.00 28 1012.0
20260503232018 60 298 4.3 11.3 0.00 0.00 0.00 26 1011.9
20260503230903 60 289 4.3 13.9 0.00 0.00 0.00 27 1011.8
20260503230003 60 288 3.5 12.2 0.00 0.00 0.00 26 1011.7
20260503225403 60 298 3.5 9.6 0.00 0.00 0.00 26 1011.5
20260503224503 60 289 5.2 12.2 0.00 0.00 0.00 26 1011.6
20260503223603 60 277 4.3 12.2 0.00 0.00 0.00 25 1011.8
20260503222703 60 285 4.3 12.2 0.00 0.00 0.00 25 1011.5
20260503221803 60 289 4.3 12.2 0.00 0.00 0.00 26 1011.5
20260503220903 61 280 3.5 9.6 0.00 0.00 0.00 26 1011.8
20260503220003 60 282 6.1 13.0 0.00 0.00 0.00 26 1011.6
20260503215620 60 281 5.2 13.0 0.00 0.00 0.00 26 1011.5
20260503214503 60 296 6.1 13.9 0.00 0.00 0.00 27 1011.6
20260503213603 60 304 5.2 12.2 0.00 0.00 0.00 27 1011.5
20260503212917 60 307 5.2 13.9 0.00 0.00 0.00 26 1011.4